Location: Newark
(42.9260°N, 89.3850°W)
Time: 06:13:30
(UTC+00:00)

STARLINK 1064 - Pass Details

Date: 14 December 2019
Orbit: 549 x 551 km, 53.0° (Epoch: 26 January)

Event Time Altitude Azimuth Distance (km) Brightness Sun altitude
Exits shadow 11:14:53 24° 200° (SSW) 1,194 5.2 -22.2°
Drops below altitude 10° 11:17:16 10° 170° (S) 1,843 6.5 -21.7°
Sets 11:19:44 0° 158° (SSE) 2,734 7.7 -21.3°
